Location: Strawberry
(45.6646°N, 111.9596°W)
Time: 20:19:30
(UTC+00:00)

Explorer 11/Cluster Stage 4 - Pass Details

Date: 11 October 2022
Orbit: 466 x 1248 km, 28.8° (Epoch: 28 November)

Event Time Altitude Azimuth Distance (km) Brightness Sun altitude
Rises 17:17:04 0° 241° (WSW) 3,958 10.1 31.0°
Reaches altitude 10° 17:20:27 10° 227° (SW) 3,089 9.8 31.3°
Maximum altitude 17:26:13 23° 180° (S) 2,372 10.3 31.8°
Drops below altitude 10° 17:32:10 10° 133° (SE) 3,209 11.0 32.4°
Sets 17:35:46 0° 120° (ESE) 4,148 11.1 32.7°
